Location: Albany
(35.0170°S, 117.8920°E)
Time: 17:02:57
(UTC+08:00)

SR - Pass Details

Date: 23 January 2021
Orbit: 573 x 882 km, 66.7° (Epoch: 25 February)

Event Time Altitude Azimuth Distance (km) Brightness Sun altitude
Rises 02:11:43 0° 206° (SSW) 2,866 ? -29.4°
Reaches altitude 10° 02:14:00 10° 204° (SSW) 1,934 ? -29.2°
Enters shadow 02:16:04 27° 199° (SSW) 1,134 ? -28.9°
